Tracking 30970 objects as of 3-Jul-2025
HD Live streaming from Space Station
objects crossing your sky now

SL-8 DEB *

Track SL-8 DEB * now!
10-day predictions


NORAD ID: 18501
Int'l Code: 1978-019E
Perigee: 643.7 km
Apogee: 656.3 km
Inclination: 74.1 °
Period: 97.6 minutes
Semi major axis: 7021 km
RCS: 0.0081 m2 (small)
Launch date: February 17, 1978
Source: Commonwealth of Independent States (former USSR) (CIS)
Launch site: PLESETSK MISSILE AND SPACE COMPLEX (PKMTR)

Note: This is SATELLITE DEBRIS
Your satellite tracking list
Your tracking list is empty




NASA's NSSDC Master Catalog

Two Line Element Set (TLE):
1 18501U 78019E   25183.83849152  .00002896  00000-0  42777-3 0  9994
2 18501  74.0529  98.3318 0009010 327.0624  95.6708 14.75718037136222
Source of the keplerian elements: AFSPC